Date String (YYYY-MM-DD hh:mm:ss) UTC,Instrument flags,absolute air pressure of the measurement (hPa),sample flow rate (lpm),inlet stack bypass flow (lpm),air temperature of the measurement (°C),ambient temperature measured by the external sensor (°C),aerosol sample conditioner tube jacket temperature (°C),OPC LED temperature (°C),internal box temperature (°C),relative humidity of the measurement (%),span deviation,mass concentration of particles derived from Lorenz-Mie calculation of OPC scattering (μg/m³),mass concentration of particles derived from Lorenz-Mie calculation of OPC scattering (μg/m³),mass concentration of particles derived from Lorenz-Mie calculation of OPC scattering (μg/m³)
DateTimeUTC,F1_M11,P_M11,Q1_M11,Q2_M11,T1_M11,T2_M11,T3_M11,T4_M11,T5_M11,U1_M11,ZSPAN_M11,X0_M11,X2_M11,X1_M11
2023-10-28 04:00:00,SystemResetWarning,0831.3,5.00,000.00,023.1,021.5,000.0,031.5,024.7,13.7,0000.0,0010.75,0005.17,0004.55
2023-10-28 04:01:00,SystemResetWarning,0831.3,5.00,000.00,023.1,021.5,000.0,031.5,024.7,13.8,0000.0,0010.88,0005.18,0004.56
2023-10-28 04:02:00,SystemResetWarning,0831.3,5.00,000.00,023.1,021.5,000.0,031.5,024.7,13.7,0000.0,0010.53,0005.16,0004.55
2023-10-28 04:03:00,SystemResetWarning,0831.3,5.01,000.00,023.1,021.5,000.0,031.5,024.7,13.8,0000.0,0010.67,0005.11,0004.54
2023-10-28 04:04:00,SystemResetWarning,0831.3,5.00,000.00,023.1,021.5,000.0,031.5,024.6,14.0,0000.0,0010.27,0005.08,0004.53
2023-10-28 04:05:00,SystemResetWarning,0831.2,5.00,000.00,023.1,021.5,000.0,031.5,024.6,14.1,0000.0,0010.67,0005.09,0004.53
2023-10-28 04:06:00,SystemResetWarning,0831.3,5.00,000.00,023.1,021.5,000.0,031.5,024.6,14.1,-000.2,0010.58,0005.09,0004.53
2023-10-28 04:07:00,SystemResetWarning,0831.3,5.00,000.00,023.1,021.5,000.0,031.5,024.6,14.0,-000.0,0010.90,0005.08,0004.52
2023-10-28 04:08:00,SystemResetWarning,0831.3,4.99,000.00,023.1,021.5,000.0,031.5,024.6,14.0,0000.0,0011.07,0005.07,0004.52
2023-10-28 04:09:00,SystemResetWarning,0831.3,4.99,000.00,023.1,021.5,000.0,031.5,024.6,13.9,0000.0,0011.09,0005.08,0004.52
2023-10-28 04:10:00,SystemResetWarning,0831.2,5.00,000.00,023.1,021.5,000.0,031.5,024.6,13.9,0000.0,0011.12,0005.06,0004.52
2023-10-28 04:11:00,SystemResetWarning,0831.2,5.01,000.00,023.1,021.5,000.0,031.5,024.6,13.9,-000.3,0011.00,0005.04,0004.51
2023-10-28 04:12:00,SystemResetWarning,0831.2,5.01,000.00,023.1,021.5,000.0,031.5,024.6,13.9,-000.2,0010.83,0005.02,0004.50
2023-10-28 04:13:00,SystemResetWarning,0831.2,5.01,000.00,023.1,021.5,000.0,031.5,024.6,13.9,-000.1,0010.90,0005.02,0004.48
2023-10-28 04:14:00,SystemResetWarning,0831.3,4.99,000.00,023.1,021.5,000.0,031.4,024.6,13.8,0000.3,0010.33,0005.01,0004.47
2023-10-28 04:15:00,SystemResetWarning,0831.3,4.99,000.00,023.1,021.5,000.0,031.4,024.6,14.0,0000.1,0010.20,0004.99,0004.46
2023-10-28 04:16:00,SystemResetWarning,0831.2,4.99,000.00,023.1,021.5,000.0,031.4,024.6,14.1,0000.0,0009.80,0004.98,0004.44
2023-10-28 04:17:00,SystemResetWarning,0831.3,5.01,000.00,023.1,021.5,000.0,031.4,024.6,14.0,0000.0,0010.05,0005.00,0004.43
2023-10-28 04:18:00,SystemResetWarning,0831.3,5.00,000.00,023.1,021.4,000.0,031.4,024.6,14.0,0000.0,0009.68,0004.99,0004.41
2023-10-28 04:19:00,SystemResetWarning,0831.4,5.00,000.00,023.1,021.4,000.0,031.4,024.6,14.0,0000.0,0009.45,0004.98,0004.40
2023-10-28 04:20:00,SystemResetWarning,0831.3,5.00,000.00,023.0,021.4,000.0,031.4,024.6,14.0,0000.0,0009.13,0004.94,0004.39
2023-10-28 04:21:00,SystemResetWarning,0831.3,5.00,000.00,023.0,021.4,000.0,031.4,024.6,14.0,0000.0,0009.22,0004.91,0004.38
2023-10-28 04:22:00,SystemResetWarning,0831.3,5.00,000.00,023.0,021.4,000.0,031.4,024.6,14.0,0000.0,0009.39,0004.92,0004.38
2023-10-28 04:23:00,SystemResetWarning,0831.3,5.00,000.00,023.0,021.4,000.0,031.4,024.5,14.1,0000.0,0010.19,0004.91,0004.37
2023-10-28 04:24:00,SystemResetWarning,0831.3,5.00,000.00,023.0,021.4,000.0,031.4,024.5,14.1,0000.0,0011.25,0004.88,0004.36
2023-10-28 04:25:00,SystemResetWarning,0831.3,5.00,000.00,023.0,021.4,000.0,031.4,024.6,14.0,0000.0,0011.47,0004.87,0004.36
2023-10-28 04:26:00,SystemResetWarning,0831.3,5.00,000.00,023.0,021.4,000.0,031.4,024.5,14.0,0000.0,0011.88,0004.89,0004.37
2023-10-28 04:27:00,SystemResetWarning,0831.3,5.00,000.00,023.0,021.4,000.0,031.4,024.5,13.9,0000.0,0012.78,0004.89,0004.37
2023-10-28 04:28:00,SystemResetWarning,0831.4,5.01,000.00,023.0,021.4,000.0,031.4,024.5,14.0,0000.0,0013.32,0004.88,0004.37
2023-10-28 04:29:00,SystemResetWarning,0831.3,5.00,000.00,023.0,021.4,000.0,031.4,024.5,14.1,0000.0,0013.13,0004.88,0004.38
2023-10-28 04:30:00,SystemResetWarning,0831.4,5.00,000.00,023.0,021.4,000.0,031.4,024.5,14.2,0000.0,0013.40,0004.88,0004.37
2023-10-28 04:31:00,SystemResetWarning,0831.3,5.00,000.00,023.0,021.4,000.0,031.4,024.5,14.1,0000.0,0014.25,0004.93,0004.37
2023-10-28 04:32:00,SystemResetWarning,0831.3,5.00,000.00,023.0,021.4,000.0,031.4,024.6,14.0,0000.0,0014.02,0004.94,0004.36
2023-10-28 04:33:00,SystemResetWarning,0831.3,5.00,000.00,023.0,021.5,000.0,031.4,024.6,14.0,0000.0,0014.07,0004.94,0004.35
2023-10-28 04:34:00,SystemResetWarning,0831.3,5.00,000.00,023.0,021.5,000.0,031.3,024.6,14.0,0000.0,0014.06,0004.91,0004.34
2023-10-28 04:35:00,SystemResetWarning,0831.3,5.00,000.00,023.0,021.5,000.0,031.3,024.6,13.9,0000.0,0013.16,0004.94,0004.36
2023-10-28 04:36:00,SystemResetWarning,0831.3,5.01,000.00,023.0,021.5,000.0,031.3,024.6,13.8,0000.0,0013.03,0004.97,0004.36
2023-10-28 04:37:00,SystemResetWarning,0831.3,5.00,000.00,023.0,021.5,000.0,031.3,024.6,13.7,0000.0,0012.65,0004.99,0004.37
2023-10-28 04:38:00,SystemResetWarning,0831.3,5.01,000.00,023.0,021.5,000.0,031.3,024.6,13.6,0000.0,0012.42,0005.02,0004.37
2023-10-28 04:39:00,SystemResetWarning,0831.4,5.00,000.00,023.0,021.6,000.0,031.3,024.6,13.6,0000.0,0012.04,0005.03,0004.37
2023-10-28 04:40:00,SystemResetWarning,0831.4,4.99,000.00,023.0,021.6,000.0,031.3,024.6,13.6,0000.0,0012.00,0005.00,0004.36
2023-10-28 04:41:00,SystemResetWarning,0831.3,4.99,000.00,023.0,021.6,000.0,031.3,024.6,13.7,0000.0,0011.74,0004.97,0004.35
2023-10-28 04:42:00,SystemResetWarning,0831.3,5.00,000.00,023.0,021.6,000.0,031.3,024.6,13.8,0000.0,0010.98,0004.94,0004.35
2023-10-28 04:43:00,SystemResetWarning,0831.3,5.00,000.00,023.0,021.6,000.0,031.3,024.6,13.9,0000.0,0011.04,0004.95,0004.35
2023-10-28 04:44:00,SystemResetWarning,0831.3,5.01,000.00,023.0,021.6,000.0,031.3,024.6,13.9,0000.0,0010.90,0004.94,0004.36
2023-10-28 04:45:00,SystemResetWarning,0831.3,5.01,000.00,023.0,021.6,000.0,031.3,024.7,14.0,0000.0,0010.41,0004.96,0004.37
2023-10-28 04:46:00,SystemResetWarning,0831.3,5.00,000.00,023.0,021.6,000.0,031.3,024.7,14.1,0000.0,0010.37,0004.96,0004.36
2023-10-28 04:47:00,SystemResetWarning,0831.3,5.00,000.00,023.0,021.6,000.0,031.3,024.6,14.1,0000.0,0010.32,0004.94,0004.35
2023-10-28 04:48:00,SystemResetWarning,0831.3,4.99,000.00,023.1,021.6,000.0,031.3,024.7,14.1,0000.0,0010.01,0004.90,0004.34
2023-10-28 04:49:00,SystemResetWarning,0831.3,4.99,000.00,023.1,021.6,000.0,031.3,024.7,14.0,0000.0,0009.10,0004.89,0004.34
2023-10-28 04:50:00,SystemResetWarning,0831.3,5.00,000.00,023.1,021.6,000.0,031.3,024.7,13.7,0000.0,0008.51,0004.89,0004.34
2023-10-28 04:51:00,SystemResetWarning,0831.3,5.00,000.00,023.1,021.6,000.0,031.3,024.7,13.7,0000.0,0008.91,0004.91,0004.34
2023-10-28 04:52:00,SystemResetWarning,0831.3,5.00,000.00,023.1,021.6,000.0,031.3,024.7,13.7,0000.0,0009.16,0004.90,0004.35
2023-10-28 04:53:00,SystemResetWarning,0831.4,5.00,000.00,023.1,021.6,000.0,031.4,024.7,13.8,0000.0,0009.56,0004.90,0004.34
2023-10-28 04:54:00,SystemResetWarning,0831.3,5.00,000.00,023.1,021.6,000.0,031.4,024.7,13.9,0000.0,0009.88,0004.89,0004.33
2023-10-28 04:55:00,SystemResetWarning,0831.3,5.00,000.00,023.1,021.6,000.0,031.4,024.6,14.1,0000.0,0010.27,0004.89,0004.30
2023-10-28 04:56:00,SystemResetWarning,0831.3,5.01,000.00,023.0,021.6,000.0,031.4,024.6,14.2,0000.0,0010.62,0004.85,0004.29
2023-10-28 04:57:00,SystemResetWarning,0831.3,5.00,000.00,023.0,021.6,000.0,031.4,024.6,14.2,0000.0,0010.38,0004.82,0004.28
2023-10-28 04:58:00,SystemResetWarning,0831.4,5.00,000.00,023.0,021.6,000.0,031.4,024.6,14.2,0000.0,0010.59,0004.80,0004.27
2023-10-28 04:59:00,SystemResetWarning,0831.3,5.00,000.00,023.0,021.5,000.0,031.4,024.6,14.3,0000.0,0011.45,0004.83,0004.27
